Deering, AK

12:27 AM AKST on February 24, 2017 (GMT -0900)
Deering (New)

Weather History for PADE - August, 2013

Change the Weather History Date:

Sunday, August 18, 2013

  Actual Average (PAOT) Record (PAOT)
Temperature  
Mean Temperature 48 °F -  
Max Temperature 63 °F 54 °F 76 °F (2004)
Min Temperature 33 °F 45 °F 31 °F (1902)
Degree Days  
Heating Degree Days 17    
Moisture  
Dew Point 42 °F    
Average Humidity 82    
Maximum Humidity 100    
Minimum Humidity 41    
Precipitation  
Precipitation 0.25 in - - ()
Sea Level Pressure  
Sea Level Pressure 29.64 in    
Wind  
Wind Speed 8 mph (SSW)    
Max Wind Speed 12 mph    
Max Gust Speed -    
Visibility 6 miles    
Events Fog , Rain    
Averages and records for this station are not official NWS values.
T = Trace of Precipitation, MM = Missing Value Source: NWS Daily Summary

Daily Weather History Graph

Daily Weather History Graph

Search for Another Location

Airport or City:

Trip Planner

Search our weather history database for the weather conditions in past years. The results will help you decide how hot, cold, wet, or windy it might be!

Date:

Astronomy

Aug. 18, 2013 Rise Set
Actual Time 6:40 AM AKDT 11:06 PM AKDT
Civil Twilight 5:29 AM AKDT 12:16 AM AKDT
Nautical Twilight 3:27 AM AKDT 2:22 AM AKDT
Astronomical Twilight Sun does not rise Sun does not rise
Moon 9:40 PM AKDT (8/18) 3:23 AM AKDT (8/18)
Length of Visible Light 18h 47m
Length of Day
16h 26m
Waxing Gibbous, 93% of the Moon is Illuminated
Aug 18
Waxing Gibbous
Aug 20
Full
Aug 28
Last Quarter
Sep 5
New
Sep 12
First Quarter

Hourly Weather History & Observations

Time (AKDT) Temp. Windchill Dew Point Humidity Pressure Visibility Wind Dir Wind Speed Gust Speed Precip Events Conditions
12:08 AM 44.6 °F 39.2 °F 41.0 °F 87% 29.71 in 10.0 mi SSW 10.4 mph - N/A   Mostly Cloudy
12:53 AM 46.0 °F 41.0 °F 43.0 °F 89% 29.71 in 10.0 mi SW 10.4 mph - N/A   Overcast
1:53 AM 46.0 °F 42.5 °F 43.0 °F 89% 29.71 in 10.0 mi SW 6.9 mph - N/A   Overcast
2:00 AM 46.4 °F 41.9 °F 44.6 °F 93% 29.70 in 10.0 mi SW 9.2 mph - N/A   Overcast
2:37 AM 46.4 °F 41.1 °F 44.6 °F 93% 29.71 in 2.0 mi SW 11.5 mph - N/A   Overcast
2:44 AM 44.6 °F 39.2 °F 42.8 °F 93% 29.71 in 1.0 mi SW 10.4 mph - N/A   Overcast
2:51 AM 44.6 °F 39.7 °F 42.8 °F 93% 29.71 in 0.8 mi SW 9.2 mph - N/A   Mist
2:53 AM 45.0 °F 40.1 °F 43.0 °F 93% 29.71 in 1.0 mi WSW 9.2 mph - N/A   Mist
3:27 AM 44.6 °F 39.2 °F 42.8 °F 93% 29.71 in 2.5 mi West 10.4 mph - N/A   Overcast
3:35 AM 44.6 °F 38.8 °F 42.8 °F 93% 29.71 in 4.0 mi West 11.5 mph - N/A   Overcast
3:53 AM 44.1 °F 38.6 °F 43.0 °F 96% 29.71 in 4.0 mi West 10.4 mph - N/A   Overcast
4:05 AM 44.6 °F 39.2 °F 42.8 °F 93% 29.70 in 2.5 mi West 10.4 mph - N/A   Overcast
4:15 AM 42.8 °F 40.1 °F 42.8 °F 100% 29.70 in 0.8 mi South 4.6 mph - N/A   Mist
4:53 AM 41.0 °F 38.0 °F 39.9 °F 96% 29.70 in 0.2 mi SSW 4.6 mph - N/A Fog Fog
5:53 AM 35.1 °F - 34.0 °F 96% 29.70 in 0.2 mi Calm Calm - N/A Fog Fog
6:53 AM 33.1 °F - 32.0 °F 96% 29.68 in 0.2 mi Calm Calm - N/A Fog Fog
7:18 AM 33.8 °F - 32.0 °F 93% 29.68 in 2.5 mi Calm Calm - N/A   Mostly Cloudy
7:25 AM 33.8 °F - 32.0 °F 93% 29.67 in 10.0 mi Calm Calm - N/A   Scattered Clouds
7:53 AM 34.0 °F 29.8 °F 32.0 °F 92% 29.67 in 10.0 mi SSW 4.6 mph - N/A   Clear
8:53 AM 39.0 °F - 37.0 °F 93% 29.66 in 10.0 mi Calm Calm - N/A   Clear
9:53 AM 46.9 °F - 41.0 °F 80% 29.65 in 10.0 mi Calm Calm - N/A   Clear
10:53 AM 54.0 °F - 41.0 °F 62% 29.64 in 10.0 mi SE 6.9 mph - N/A   Clear
11:53 AM 57.0 °F - 41.0 °F 55% 29.62 in 10.0 mi SE 9.2 mph - N/A   Clear
12:53 PM 59.0 °F - 39.9 °F 49% 29.60 in 10.0 mi SE 9.2 mph - N/A   Clear
1:53 PM 62.1 °F - 37.9 °F 41% 29.59 in 10.0 mi SE 10.4 mph - N/A   Clear
2:53 PM 63.0 °F - 39.0 °F 41% 29.57 in 10.0 mi SSE 6.9 mph - N/A   Clear
3:53 PM 61.0 °F - 42.1 °F 50% 29.57 in 10.0 mi WNW 6.9 mph - N/A   Scattered Clouds
4:53 PM 59.0 °F - 44.1 °F 58% 29.56 in 10.0 mi NW 4.6 mph - N/A   Overcast
5:53 PM 55.0 °F - 48.0 °F 77% 29.57 in 10.0 mi North 4.6 mph - 0.01 in Rain Light Rain
6:53 PM 57.0 °F - 48.0 °F 72% 29.55 in 10.0 mi NE 4.6 mph - 0.01 in Rain Light Rain
7:53 PM 55.9 °F - 48.0 °F 75% 29.53 in 10.0 mi ENE 6.9 mph - 0.00 in   Overcast
8:53 PM 54.0 °F - 48.9 °F 83% 29.52 in 7.0 mi East 11.5 mph - 0.02 in Rain Rain
9:53 PM 53.1 °F - 48.9 °F 86% 29.52 in 6.0 mi East 10.4 mph - 0.04 in Rain Light Rain
10:53 PM 52.0 °F - 48.9 °F 89% 29.51 in 7.0 mi East 9.2 mph - 0.09 in Rain Rain
11:53 PM 53.1 °F - 48.9 °F 86% 29.51 in 7.0 mi East 9.2 mph - 0.08 in Rain Light Rain